FALCON 9 DEB (47785 NORAD) Tracking and Keplerian Element Data

This shows tracking and keplerian element data for the satellite.

Feedback or suggestion? Click here.




ElementValue
Catalog47785
NameFALCON 9 DEB
Epoch Orbit928
Epoch Day88.3251092
Epoch Year2021
RAAN54.2617
Inclination53.0259
Eccentricity0.0006865
Argument of Perigee268.7121
Mean Anonmoly91.3143
Mean Motion16.48662275
Decay Rate0.11437793
L11 47785U 21017BR 21088.32510920 .11437793 12601-4 15783-3 0 9999
L22 47785 53.0259 54.2617 0006865 268.7121 91.3143 16.48662275 9281



Live tracking and technical data element details for FALCON 9 DEB (NORAD 47785). FALCON 9 DEB can be tracked NOW for your location showing map with azimuth and elevation plus other details from your city location.







IsCatalogInMostPopularTable: catalog: 47785, numindb: 101
Update: records affected: 1



GetName: 47785 FALCON 9 DEB

Hit Count: updated at: Sun, 28 May 2023 07:32:12 GMT